Weather History for Poplar Bluff, MO

Change the Weather History Date:

Wednesday, January 9, 2013

  Actual Average Record
Temperature  
Mean Temperature 52 °F -  
Max Temperature 59 °F 37 °F 75 °F (1957)
Min Temperature 44 °F 20 °F -2 °F (1970)
Degree Days  
Heating Degree Days 14    
Growing Degree Days 2 (Base 50)    
Moisture  
Dew Point 43 °F    
Average Humidity 77    
Maximum Humidity 93    
Minimum Humidity 62    
Precipitation  
Precipitation 0.02 in - - ()
Sea Level Pressure  
Sea Level Pressure 30.34 in    
Wind  
Wind Speed 4 mph (NE)    
Max Wind Speed 10 mph    
Max Gust Speed -    
Visibility 9 miles    
Events Rain    
Averages and records for this station are not official NWS values.
T = Trace of Precipitation, MM = Missing Value Source: NWS Daily Summary

Daily Weather History Graph

Daily Weather History Graph

Search for Another Location

Airport:

Trip Planner

Search our weather history database for the weather conditions in past years. The results will help you decide how hot, cold, wet, or windy it might be!

Date:

Astronomy

Jan. 09, 2013 Rise Set
Actual Time 7:14 AM CST 5:03 PM CST
Civil Twilight 6:45 AM CST 5:31 PM CST
Nautical Twilight 6:13 AM CST 6:03 PM CST
Astronomical Twilight 5:42 AM CST 6:35 PM CST
Moon 4:53 AM CST (1/9) 3:05 PM CST (1/9)
Length of Visible Light 10h 45m
Length of Day
9h 48m
Waning Crescent, 6% of the Moon is Illuminated
Jan 9
Waning Crescent
Jan 11
New
Jan 18
First Quarter
Jan 26
Full
Feb 3
Last Quarter

Hourly Weather History & Observations

Time (CST) Temp. Windchill Dew Point Humidity Pressure Visibility Wind Dir Wind Speed Gust Speed Precip Events Conditions
12:53 AM 44.1 °F 42.5 °F 39.9 °F 85% 30.25 in 10.0 mi NW 3.5 mph - 0.00 in   Overcast
1:53 AM 45.0 °F - 41.0 °F 86% 30.25 in 10.0 mi Calm Calm - 0.00 in   Scattered Clouds
2:53 AM 44.1 °F - 41.0 °F 89% 30.25 in 9.0 mi Calm Calm - N/A   Mostly Cloudy
3:53 AM 46.9 °F - 42.1 °F 83% 30.27 in 10.0 mi North 3.5 mph - N/A   Overcast
4:17 AM 46.4 °F 43.5 °F 42.8 °F 87% 30.27 in 10.0 mi NNW 5.8 mph - N/A   Overcast
4:53 AM 48.0 °F - 42.1 °F 80% 30.28 in 10.0 mi North 3.5 mph - N/A   Overcast
5:53 AM 46.9 °F - 43.0 °F 86% 30.30 in 10.0 mi East 3.5 mph - 0.00 in   Overcast
6:16 AM 46.4 °F - 42.8 °F 87% 30.30 in 10.0 mi Calm Calm - N/A   Scattered Clouds
6:35 AM 46.4 °F - 42.8 °F 87% 30.32 in 10.0 mi Calm Calm - N/A   Mostly Cloudy
6:53 AM 45.0 °F - 42.1 °F 90% 30.34 in 6.0 mi Calm Calm - N/A   Overcast
7:11 AM 44.6 °F - 42.8 °F 93% 30.34 in 7.0 mi Calm Calm - N/A   Overcast
7:53 AM 46.0 °F - 44.1 °F 93% 30.37 in 5.0 mi Calm Calm - N/A   Overcast
8:53 AM 48.0 °F - 44.1 °F 86% 30.40 in 7.0 mi Calm Calm - N/A   Overcast
10:53 AM 54.0 °F - 45.0 °F 72% 30.38 in 10.0 mi NE 5.8 mph - N/A   Clear
11:53 AM 55.9 °F - 46.0 °F 69% 30.36 in 10.0 mi NNE 5.8 mph - N/A   Overcast
12:53 PM 57.0 °F - 44.1 °F 62% 30.35 in 10.0 mi NE 10.4 mph - N/A   Clear
1:53 PM 57.9 °F - 45.0 °F 62% 30.35 in 10.0 mi ENE 8.1 mph - N/A   Clear
2:53 PM 59.0 °F - 46.0 °F 62% 30.35 in 10.0 mi ENE 8.1 mph - N/A   Clear
3:53 PM 57.0 °F - 45.0 °F 64% 30.36 in 10.0 mi ENE 4.6 mph - N/A   Clear
4:53 PM 55.0 °F - 42.1 °F 62% 30.37 in 10.0 mi NE 8.1 mph - N/A   Clear
5:53 PM 53.1 °F - 43.0 °F 69% 30.38 in 10.0 mi NE 9.2 mph - N/A   Clear
6:53 PM 53.1 °F - 43.0 °F 69% 30.39 in 10.0 mi NE 6.9 mph - N/A   Clear
7:53 PM 52.0 °F - 43.0 °F 71% 30.40 in 10.0 mi NE 9.2 mph - N/A   Clear
8:53 PM 52.0 °F - 42.1 °F 69% 30.40 in 10.0 mi NE 10.4 mph - N/A   Partly Cloudy
9:53 PM 51.1 °F - 42.1 °F 71% 30.40 in 10.0 mi NE 8.1 mph - N/A   Overcast
10:53 PM 51.1 °F - 42.1 °F 71% 30.41 in 10.0 mi NE 9.2 mph - N/A   Overcast
11:53 PM 48.9 °F - 42.1 °F 77% 30.39 in 10.0 mi NE 10.4 mph - 0.02 in Rain Light Rain